Flag for Australia Weather past 2 weeks in Brisbane, Queensland, Australia

Now
66 °F

Sunny.


Feels Like: 66 °F
Forecast: 47 / 66 °F
Wind: 8 mph from Southeast

Location: Brisbane Airport M. O

Current Time: Aug 2, 2014 at 1:18:34 PM

Latest Report: Aug 2, 2014 at 1:00 PM


Visibility: 10 mi

Pressure: 30.15 "Hg

Humidity: 9%

Dew point: 7 °F

Location of BrisbaneLocation

Historic Weather in Brisbane — Graph

°F

Brisbane temperature yesterday

Maximum temperature yesterday: 82 °F (at 2:30 PM)
Minimum temperature yesterday: 55 °F (at 5:00 AM)
Average temperature yesterday: 67 °F

Past Weeks' High & Low Weather Summary

 TemperatureHumidityPressure
High82 °F (Aug 1, 2:30 PM)100% (Jul 23, 1:00 AM)30.33 "Hg (Jul 23, 1:00 AM)
Low41 °F (Jul 29, 6:00 AM)12% (Aug 2, 12:00 PM)29.83 "Hg (Aug 1, 3:30 PM)
Average60 °F68%30.13 "Hg
* Reported Jul 18 12:00 Noon — Aug 2 12:00 Noon, Brisbane, Weather by CustomWeather, © 2014

Note: Actual official high and low records may vary slightly from our data, if they occured in-between our weather recording intervals... More about our weather records

Advertising

Brisbane weather history for previous 24 hours

 ConditionsComfort  
Time TempWeatherWind HumidityBarometerVisibility
12:00 PM
Aug 2
66 °FSunny.8 mph12%30.18 "Hg10 mi
11:30 AM64 °FSunny.13 mph14%30.18 "Hg10 mi
11:00 AM64 °FSunny.13 mph16%30.18 "Hg10 mi
10:30 AM63 °FSunny.16 mph17%30.21 "Hg10 mi
10:00 AM63 °FSunny.16 mph16%30.21 "Hg10 mi
9:30 AM61 °FSunny.18 mph20%30.21 "Hg10 mi
9:00 AM59 °FSunny.21 mph21%30.21 "Hg10 mi
8:30 AM59 °FSunny.18 mph21%30.18 "Hg10 mi
8:00 AM57 °FSunny.18 mph23%30.18 "Hg10 mi
7:00 AM55 °FSunny.16 mph31%30.15 "Hg10 mi
6:30 AM54 °FPassing clouds.18 mph38%30.15 "HgN/A
6:00 AM55 °FPassing clouds.16 mph36%30.12 "HgN/A
5:30 AM55 °FSunny.17 mph38%30.09 "Hg10 mi
5:00 AM52 °FClear.16 mph58%30.09 "Hg10 mi
4:30 AM54 °FClear.12 mph54%30.07 "Hg10 mi
4:00 AM55 °FClear.8 mph51%30.07 "Hg10 mi
3:30 AM57 °FClear.10 mph44%30.07 "Hg10 mi
3:00 AM59 °FClear.12 mph42%30.07 "Hg10 mi
2:30 AM55 °FClear.15 mph47%30.04 "Hg10 mi
2:00 AM59 °FClear.14 mph39%30.04 "Hg10 mi
1:30 AM57 °FClear.14 mph44%30.04 "Hg10 mi
1:00 AM63 °FClear.9 mph32%30.04 "Hg10 mi
12:30 AM59 °FClear.5 mph45%30.04 "Hg10 mi
12:00 AM59 °FClear.8 mph45%30.01 "Hg10 mi
11:30 PM
Aug 1
59 °FClear.7 mph51%30.01 "Hg10 mi
11:00 PM63 °FClear.8 mph42%29.98 "Hg10 mi
10:30 PM59 °FClear.13 mph63%29.98 "Hg10 mi
10:00 PM64 °FClear.8 mph64%29.95 "Hg10 mi
9:30 PM64 °FClear.7 mph73%29.95 "Hg10 mi
9:00 PM64 °FClear.8 mph78%29.92 "Hg10 mi
8:30 PM64 °FClear.8 mph83%29.92 "Hg10 mi
8:00 PM68 °FClear.7 mph73%29.92 "Hg10 mi
7:30 PM66 °FClear.12 mph78%29.92 "Hg10 mi
7:00 PM68 °FClear.13 mph78%29.89 "Hg10 mi
6:00 PM68 °FClear.16 mph73%29.86 "Hg10 mi
5:00 PM79 °FClear.12 mph26%29.86 "Hg10 mi
4:00 PM81 °FSunny.10 mph26%29.86 "Hg10 mi
3:30 PM82 °FSunny.10 mph26%29.83 "Hg10 mi
3:00 PM82 °FSunny.16 mph26%29.86 "Hg10 mi
2:30 PM82 °FScattered clouds.18 mph26%29.86 "HgN/A
2:00 PM81 °FScattered clouds.17 mph30%29.86 "HgN/A
1:30 PM81 °FPassing clouds.12 mph32%29.89 "HgN/A
1:00 PM77 °FPassing clouds.15 mph44%29.89 "HgN/A
Weather by CustomWeather, © 2014

See weather overviewHow to use our weather pages